Time,TemperatureF,DewpointF,PressureIn,WindDirection,WindDirectionDegrees,WindSpeedMPH,WindSpeedGustMPH,Humidity,HourlyPrecipIn,Conditions,Clouds,dailyrainin,SoftwareType,DateUTC
2013-10-07 00:00:00,49.1,42.2,29.78,WSW,238,3.0,3.0,77,0.00,,,0.00,Wunderground v.1.15,2013-10-07 04:00:00,
2013-10-07 00:05:00,48.9,42.0,29.78,WSW,257,4.0,4.0,77,0.00,,,0.00,Wunderground v.1.15,2013-10-07 04:05:00,
2013-10-07 00:10:00,48.7,41.5,29.78,West,260,5.0,5.0,76,0.00,,,0.00,Wunderground v.1.15,2013-10-07 04:10:00,
2013-10-07 00:15:00,48.5,41.6,29.78,WSW,240,4.0,5.0,77,0.00,,,0.00,Wunderground v.1.15,2013-10-07 04:15:00,
2013-10-07 00:20:00,48.2,41.7,29.78,West,275,3.0,4.0,78,0.00,,,0.00,Wunderground v.1.15,2013-10-07 04:20:00,
2013-10-07 00:25:00,47.9,41.0,29.78,West,260,3.0,4.0,77,0.00,,,0.00,Wunderground v.1.15,2013-10-07 04:25:00,
2013-10-07 00:30:00,47.7,40.8,29.78,SW,228,3.0,3.0,77,0.00,,,0.00,Wunderground v.1.15,2013-10-07 04:30:00,
2013-10-07 00:40:00,47.2,40.7,29.79,SW,233,3.0,6.0,78,0.00,,,0.00,Wunderground v.1.15,2013-10-07 04:40:00,
2013-10-07 00:45:00,46.9,40.7,29.79,SW,233,3.0,6.0,79,0.00,,,0.00,Wunderground v.1.15,2013-10-07 04:45:00,
2013-10-07 00:50:00,46.7,40.5,29.78,West,264,3.0,4.0,79,0.00,,,0.00,Wunderground v.1.15,2013-10-07 04:50:00,
2013-10-07 00:55:00,46.4,40.6,29.78,WNW,284,2.0,4.0,80,0.00,,,0.00,Wunderground v.1.15,2013-10-07 04:55:00,
2013-10-07 01:00:00,46.1,40.6,29.77,WSW,257,2.0,2.0,81,0.00,,,0.00,Wunderground v.1.15,2013-10-07 05:00:00,
2013-10-07 01:05:00,45.8,40.6,29.78,NW,319,2.0,2.0,82,0.00,,,0.00,Wunderground v.1.15,2013-10-07 05:05:00,
2013-10-07 01:10:00,45.5,40.3,29.78,West,273,2.0,2.0,82,0.00,,,0.00,Wunderground v.1.15,2013-10-07 05:10:00,
2013-10-07 01:15:00,45.2,40.3,29.77,West,265,2.0,2.0,83,0.00,,,0.00,Wunderground v.1.15,2013-10-07 05:15:00,
2013-10-07 01:20:00,45.0,40.5,29.77,WSW,247,1.0,1.0,84,0.00,,,0.00,Wunderground v.1.15,2013-10-07 05:20:00,
2013-10-07 01:25:00,44.8,40.3,29.77,WSW,252,1.0,2.0,84,0.00,,,0.00,Wunderground v.1.15,2013-10-07 05:25:00,
2013-10-07 01:30:00,44.7,40.5,29.77,WNW,285,1.0,1.0,85,0.00,,,0.00,Wunderground v.1.15,2013-10-07 05:30:00,
2013-10-07 01:40:00,44.3,40.1,29.78,West,266,1.0,1.0,85,0.00,,,0.00,Wunderground v.1.15,2013-10-07 05:40:00,
2013-10-07 01:45:00,44.3,40.4,29.77,West,280,1.0,1.0,86,0.00,,,0.00,Wunderground v.1.15,2013-10-07 05:45:00,
2013-10-07 01:50:00,44.1,40.5,29.77,WSW,256,1.0,1.0,87,0.00,,,0.00,Wunderground v.1.15,2013-10-07 05:50:00,
2013-10-07 01:55:00,44.0,40.4,29.78,WSW,247,1.0,1.0,87,0.00,,,0.00,Wunderground v.1.15,2013-10-07 05:55:00,
2013-10-07 02:00:00,43.9,40.3,29.78,WSW,245,2.0,2.0,87,0.00,,,0.00,Wunderground v.1.15,2013-10-07 06:00:00,
2013-10-07 02:10:00,43.6,40.3,29.78,West,270,2.0,2.0,88,0.00,,,0.00,Wunderground v.1.15,2013-10-07 06:10:00,
2013-10-07 02:15:00,43.5,40.2,29.78,West,267,2.0,2.0,88,0.00,,,0.00,Wunderground v.1.15,2013-10-07 06:15:00,
2013-10-07 02:20:00,43.4,40.4,29.78,WSW,250,2.0,2.0,89,0.00,,,0.00,Wunderground v.1.15,2013-10-07 06:20:00,
2013-10-07 02:25:00,43.3,40.3,29.78,SW,226,2.0,4.0,89,0.00,,,0.00,Wunderground v.1.15,2013-10-07 06:25:00,
2013-10-07 02:30:00,43.3,40.3,29.79,SSW,207,2.0,2.0,89,0.00,,,0.00,Wunderground v.1.15,2013-10-07 06:30:00,
2013-10-07 02:35:00,43.3,40.3,29.79,WSW,240,3.0,3.0,89,0.00,,,0.00,Wunderground v.1.15,2013-10-07 06:35:00,
2013-10-07 02:45:00,43.3,40.3,29.79,SW,221,3.0,3.0,89,0.00,,,0.00,Wunderground v.1.15,2013-10-07 06:45:00,
2013-10-07 02:50:00,43.2,40.2,29.79,SW,236,2.0,2.0,89,0.00,,,0.00,Wunderground v.1.15,2013-10-07 06:50:00,
2013-10-07 02:55:00,43.1,40.1,29.78,SW,233,2.0,5.0,89,0.00,,,0.00,Wunderground v.1.15,2013-10-07 06:55:00,
2013-10-07 03:00:00,43.1,40.1,29.79,SW,236,2.0,2.0,89,0.00,,,0.00,Wunderground v.1.15,2013-10-07 07:00:00,
2013-10-07 03:10:00,42.9,40.2,29.79,West,262,2.0,2.0,90,0.00,,,0.00,Wunderground v.1.15,2013-10-07 07:10:00,
2013-10-07 03:20:00,42.9,40.2,29.79,WSW,245,2.0,2.0,90,0.00,,,0.00,Wunderground v.1.15,2013-10-07 07:20:00,
2013-10-07 03:25:00,43.1,40.4,29.79,SW,222,2.0,3.0,90,0.00,,,0.00,Wunderground v.1.15,2013-10-07 07:25:00,
2013-10-07 03:30:00,43.1,40.4,29.79,WSW,257,2.0,2.0,90,0.00,,,0.00,Wunderground v.1.15,2013-10-07 07:30:00,
2013-10-07 03:35:00,43.1,40.4,29.79,West,276,1.0,2.0,90,0.00,,,0.00,Wunderground v.1.15,2013-10-07 07:35:00,
2013-10-07 03:40:00,43.2,40.5,29.79,WNW,284,2.0,2.0,90,0.00,,,0.00,Wunderground v.1.15,2013-10-07 07:40:00,
2013-10-07 03:50:00,43.3,40.3,29.79,West,276,1.0,1.0,89,0.00,,,0.00,Wunderground v.1.15,2013-10-07 07:50:00,
2013-10-07 03:55:00,43.2,40.2,29.78,WSW,245,2.0,2.0,89,0.00,,,0.00,Wunderground v.1.15,2013-10-07 07:55:00,
2013-10-07 04:00:00,43.1,40.1,29.78,WSW,240,1.0,1.0,89,0.00,,,0.00,Wunderground v.1.15,2013-10-07 08:00:00,
2013-10-07 04:10:00,42.8,39.8,29.79,WSW,254,2.0,2.0,89,0.00,,,0.00,Wunderground v.1.15,2013-10-07 08:10:00,
2013-10-07 04:15:00,42.5,39.8,29.79,West,272,1.0,3.0,90,0.00,,,0.00,Wunderground v.1.15,2013-10-07 08:15:00,
2013-10-07 04:25:00,42.2,39.8,29.79,WSW,257,1.0,2.0,91,0.00,,,0.00,Wunderground v.1.15,2013-10-07 08:25:00,
2013-10-07 04:30:00,42.1,39.7,29.78,WSW,239,2.0,2.0,91,0.00,,,0.00,Wunderground v.1.15,2013-10-07 08:30:00,
2013-10-07 04:35:00,42.0,39.6,29.79,West,264,2.0,2.0,91,0.00,,,0.00,Wunderground v.1.15,2013-10-07 08:35:00,
2013-10-07 04:40:00,41.8,39.4,29.79,WSW,248,1.0,1.0,91,0.00,,,0.00,Wunderground v.1.15,2013-10-07 08:40:00,
2013-10-07 04:45:00,41.7,39.5,29.79,SW,226,1.0,1.0,92,0.00,,,0.00,Wunderground v.1.15,2013-10-07 08:45:00,
2013-10-07 04:50:00,41.6,39.4,29.79,SW,229,1.0,3.0,92,0.00,,,0.00,Wunderground v.1.15,2013-10-07 08:50:00,
2013-10-07 04:55:00,41.5,39.3,29.78,West,277,1.0,3.0,92,0.00,,,0.00,Wunderground v.1.15,2013-10-07 08:55:00,
2013-10-07 05:00:00,41.5,39.6,29.78,WSW,244,2.0,2.0,93,0.00,,,0.00,Wunderground v.1.15,2013-10-07 09:00:00,
2013-10-07 05:10:00,41.3,39.4,29.78,WSW,244,1.0,1.0,93,0.00,,,0.00,Wunderground v.1.15,2013-10-07 09:10:00,
2013-10-07 05:15:00,41.2,39.3,29.79,SW,224,1.0,1.0,93,0.00,,,0.00,Wunderground v.1.15,2013-10-07 09:15:00,
2013-10-07 05:25:00,40.9,39.3,29.79,SSW,212,0.0,1.0,94,0.00,,,0.00,Wunderground v.1.15,2013-10-07 09:25:00,
2013-10-07 05:30:00,40.7,39.1,29.79,WSW,252,0.0,4.0,94,0.00,,,0.00,Wunderground v.1.15,2013-10-07 09:30:00,
2013-10-07 05:35:00,40.7,39.1,29.79,SSW,200,1.0,4.0,94,0.00,,,0.00,Wunderground v.1.15,2013-10-07 09:35:00,
2013-10-07 05:40:00,40.6,39.3,29.79,WSW,242,1.0,3.0,95,0.00,,,0.00,Wunderground v.1.15,2013-10-07 09:40:00,
2013-10-07 05:45:00,40.7,39.4,29.79,SW,219,1.0,3.0,95,0.00,,,0.00,Wunderground v.1.15,2013-10-07 09:45:00,
2013-10-07 05:50:00,40.6,39.3,29.80,WSW,255,2.0,3.0,95,0.00,,,0.00,Wunderground v.1.15,2013-10-07 09:50:00,
2013-10-07 06:00:00,40.6,39.3,29.80,SW,231,2.0,4.0,95,0.00,,,0.00,Wunderground v.1.15,2013-10-07 10:00:00,
2013-10-07 06:10:00,40.8,39.5,29.80,SSW,195,4.0,4.0,95,0.00,,,0.00,Wunderground v.1.15,2013-10-07 10:10:00,
2013-10-07 06:15:00,40.8,39.5,29.81,WSW,239,3.0,4.0,95,0.00,,,0.00,Wunderground v.1.15,2013-10-07 10:15:00,
2013-10-07 06:20:00,40.8,39.5,29.81,SW,219,3.0,3.0,95,0.00,,,0.00,Wunderground v.1.15,2013-10-07 10:20:00,
2013-10-07 06:30:00,40.8,39.5,29.81,WSW,239,2.0,3.0,95,0.00,,,0.00,Wunderground v.1.15,2013-10-07 10:30:00,
2013-10-07 06:35:00,40.8,39.7,29.81,West,274,2.0,3.0,96,0.00,,,0.00,Wunderground v.1.15,2013-10-07 10:35:00,
2013-10-07 06:40:00,40.9,39.8,29.81,SW,229,2.0,6.0,96,0.00,,,0.00,Wunderground v.1.15,2013-10-07 10:40:00,
2013-10-07 06:45:00,41.0,39.9,29.82,SW,222,3.0,6.0,96,0.00,,,0.00,Wunderground v.1.15,2013-10-07 10:45:00,
2013-10-07 06:50:00,41.1,40.0,29.81,SW,215,3.0,3.0,96,0.00,,,0.00,Wunderground v.1.15,2013-10-07 10:50:00,
2013-10-07 06:55:00,41.1,40.0,29.81,WSW,252,3.0,4.0,96,0.00,,,0.00,Wunderground v.1.15,2013-10-07 10:55:00,
2013-10-07 07:00:00,41.3,40.2,29.81,SW,236,3.0,7.0,96,0.00,,,0.00,Wunderground v.1.15,2013-10-07 11:00:00,
2013-10-07 07:10:00,41.3,40.2,29.82,SSW,210,3.0,3.0,96,0.00,,,0.00,Wunderground v.1.15,2013-10-07 11:10:00,
2013-10-07 07:15:00,41.4,40.3,29.82,West,259,3.0,3.0,96,0.00,,,0.00,Wunderground v.1.15,2013-10-07 11:15:00,
2013-10-07 07:20:00,41.4,40.3,29.83,SW,232,2.0,3.0,96,0.00,,,0.00,Wunderground v.1.15,2013-10-07 11:20:00,
2013-10-07 07:25:00,41.4,40.3,29.83,West,262,2.0,3.0,96,0.00,,,0.00,Wunderground v.1.15,2013-10-07 11:25:00,
2013-10-07 07:35:00,41.7,40.6,29.83,SW,215,3.0,3.0,96,0.00,,,0.00,Wunderground v.1.15,2013-10-07 11:35:00,
2013-10-07 07:40:00,42.0,40.9,29.83,SW,217,4.0,4.0,96,0.00,,,0.00,Wunderground v.1.15,2013-10-07 11:40:00,
2013-10-07 07:45:00,42.3,41.2,29.83,SW,233,4.0,4.0,96,0.00,,,0.00,Wunderground v.1.15,2013-10-07 11:45:00,
2013-10-07 07:50:00,42.5,41.4,29.83,SW,228,3.0,3.0,96,0.00,,,0.00,Wunderground v.1.15,2013-10-07 11:50:00,
2013-10-07 07:55:00,42.7,41.4,29.83,SW,232,3.0,4.0,95,0.00,,,0.00,Wunderground v.1.15,2013-10-07 11:55:00,
2013-10-07 08:00:00,42.9,41.3,29.83,WSW,242,4.0,4.0,94,0.00,,,0.00,Wunderground v.1.15,2013-10-07 12:00:00,
2013-10-07 08:10:00,43.2,41.6,29.84,West,263,3.0,4.0,94,0.00,,,0.00,Wunderground v.1.15,2013-10-07 12:10:00,
2013-10-07 08:15:00,43.4,41.5,29.83,WSW,256,3.0,4.0,93,0.00,,,0.00,Wunderground v.1.15,2013-10-07 12:15:00,
2013-10-07 08:20:00,43.5,41.6,29.84,WSW,250,3.0,6.0,93,0.00,,,0.00,Wunderground v.1.15,2013-10-07 12:20:00,
2013-10-07 08:25:00,43.5,41.6,29.84,West,268,4.0,6.0,93,0.00,,,0.00,Wunderground v.1.15,2013-10-07 12:25:00,
2013-10-07 08:30:00,43.6,41.4,29.84,SW,226,5.0,5.0,92,0.00,,,0.00,Wunderground v.1.15,2013-10-07 12:30:00,
2013-10-07 08:35:00,43.8,41.6,29.84,West,264,5.0,5.0,92,0.00,,,0.00,Wunderground v.1.15,2013-10-07 12:35:00,
2013-10-07 08:40:00,43.9,41.7,29.85,SW,215,4.0,8.0,92,0.00,,,0.00,Wunderground v.1.15,2013-10-07 12:40:00,
2013-10-07 08:45:00,44.0,41.8,29.85,WSW,252,4.0,8.0,92,0.00,,,0.00,Wunderground v.1.15,2013-10-07 12:45:00,
2013-10-07 08:50:00,44.1,41.9,29.85,WSW,248,3.0,8.0,92,0.00,,,0.00,Wunderground v.1.15,2013-10-07 12:50:00,
2013-10-07 08:55:00,44.2,41.7,29.85,SSW,203,4.0,8.0,91,0.00,,,0.00,Wunderground v.1.15,2013-10-07 12:55:00,
2013-10-07 09:00:00,44.4,41.9,29.85,WSW,239,5.0,5.0,91,0.00,,,0.00,Wunderground v.1.15,2013-10-07 13:00:00,
2013-10-07 09:10:00,44.5,42.0,29.85,West,281,5.0,5.0,91,0.00,,,0.00,Wunderground v.1.15,2013-10-07 13:10:00,
2013-10-07 09:15:00,44.7,42.2,29.86,WSW,253,5.0,9.0,91,0.00,,,0.00,Wunderground v.1.15,2013-10-07 13:15:00,
2013-10-07 09:20:00,44.8,42.0,29.87,West,269,5.0,5.0,90,0.00,,,0.00,Wunderground v.1.15,2013-10-07 13:20:00,
2013-10-07 09:25:00,44.9,42.4,29.87,WSW,250,5.0,5.0,91,0.00,,,0.00,Wunderground v.1.15,2013-10-07 13:25:00,
2013-10-07 09:30:00,45.1,42.3,29.87,SW,221,5.0,8.0,90,0.00,,,0.00,Wunderground v.1.15,2013-10-07 13:30:00,
2013-10-07 09:35:00,45.2,42.7,29.87,WSW,248,6.0,8.0,91,0.00,,,0.00,Wunderground v.1.15,2013-10-07 13:35:00,
2013-10-07 09:45:00,45.3,43.1,29.87,WSW,257,4.0,5.0,92,0.00,,,0.00,Wunderground v.1.15,2013-10-07 13:45:00,
2013-10-07 09:50:00,45.3,43.1,29.88,West,280,4.0,4.0,92,0.00,,,0.00,Wunderground v.1.15,2013-10-07 13:50:00,
2013-10-07 09:55:00,45.4,42.9,29.87,West,262,4.0,4.0,91,0.00,,,0.00,Wunderground v.1.15,2013-10-07 13:55:00,
2013-10-07 10:00:00,45.6,43.4,29.87,WSW,241,4.0,4.0,92,0.00,,,0.00,Wunderground v.1.15,2013-10-07 14:00:00,
2013-10-07 10:10:00,46.5,43.7,29.88,SW,225,6.0,10.0,90,0.00,,,0.01,Wunderground v.1.15,2013-10-07 14:10:00,
2013-10-07 10:15:00,47.2,44.4,29.88,West,273,7.0,10.0,90,0.00,,,0.01,Wunderground v.1.15,2013-10-07 14:15:00,
2013-10-07 10:20:00,47.9,44.5,29.88,West,271,7.0,7.0,88,0.00,,,0.01,Wunderground v.1.15,2013-10-07 14:20:00,
2013-10-07 10:25:00,48.7,45.0,29.88,WNW,300,6.0,7.0,87,0.00,,,0.01,Wunderground v.1.15,2013-10-07 14:25:00,
2013-10-07 10:30:00,49.1,45.1,29.88,WNW,300,6.0,9.0,86,0.00,,,0.01,Wunderground v.1.15,2013-10-07 14:30:00,
2013-10-07 10:35:00,49.4,44.8,29.88,WSW,248,7.0,9.0,84,0.00,,,0.01,Wunderground v.1.15,2013-10-07 14:35:00,
2013-10-07 10:40:00,49.8,45.2,29.88,West,262,7.0,9.0,84,0.00,,,0.01,Wunderground v.1.15,2013-10-07 14:40:00,
2013-10-07 10:50:00,50.6,45.6,29.89,SW,226,6.0,6.0,83,0.00,,,0.01,Wunderground v.1.15,2013-10-07 14:50:00,
2013-10-07 10:55:00,50.8,45.5,29.89,WNW,297,7.0,11.0,82,0.00,,,0.01,Wunderground v.1.15,2013-10-07 14:55:00,
2013-10-07 11:00:00,51.4,45.8,29.89,SW,229,7.0,7.0,81,0.00,,,0.01,Wunderground v.1.15,2013-10-07 15:00:00,
2013-10-07 11:10:00,51.8,45.8,29.89,WSW,253,6.0,8.0,80,0.00,,,0.01,Wunderground v.1.15,2013-10-07 15:10:00,
2013-10-07 11:20:00,52.5,46.5,29.90,West,264,7.0,12.0,80,0.00,,,0.01,Wunderground v.1.15,2013-10-07 15:20:00,
2013-10-07 11:25:00,52.7,45.7,29.90,SW,224,8.0,12.0,77,0.00,,,0.01,Wunderground v.1.15,2013-10-07 15:25:00,
2013-10-07 11:30:00,52.7,45.7,29.90,WSW,241,9.0,10.0,77,0.00,,,0.01,Wunderground v.1.15,2013-10-07 15:30:00,
2013-10-07 11:35:00,52.4,45.7,29.90,West,262,7.0,10.0,78,0.00,,,0.01,Wunderground v.1.15,2013-10-07 15:35:00,
2013-10-07 11:40:00,52.0,45.4,29.90,WNW,300,8.0,8.0,78,0.00,,,0.01,Wunderground v.1.15,2013-10-07 15:40:00,
2013-10-07 11:45:00,51.5,45.2,29.91,WNW,300,8.0,8.0,79,0.00,,,0.01,Wunderground v.1.15,2013-10-07 15:45:00,
2013-10-07 11:50:00,51.3,45.3,29.91,West,273,7.0,9.0,80,0.00,,,0.01,Wunderground v.1.15,2013-10-07 15:50:00,
2013-10-07 12:00:00,50.1,45.8,29.92,WSW,255,7.0,7.0,85,0.00,,,0.01,Wunderground v.1.15,2013-10-07 16:00:00,
2013-10-07 12:10:00,49.3,45.9,29.92,WSW,243,6.0,11.0,88,0.00,,,0.01,Wunderground v.1.15,2013-10-07 16:10:00,
2013-10-07 12:15:00,49.2,45.8,29.92,WNW,300,6.0,11.0,88,0.00,,,0.01,Wunderground v.1.15,2013-10-07 16:15:00,
2013-10-07 12:20:00,49.0,45.9,29.92,SW,229,6.0,8.0,89,0.00,,,0.01,Wunderground v.1.15,2013-10-07 16:20:00,
2013-10-07 12:25:00,48.8,46.0,29.92,West,276,7.0,8.0,90,0.00,,,0.01,Wunderground v.1.15,2013-10-07 16:25:00,
2013-10-07 12:30:00,48.6,46.1,29.93,WNW,283,7.0,7.0,91,0.00,,,0.01,Wunderground v.1.15,2013-10-07 16:30:00,
2013-10-07 12:35:00,48.5,46.3,29.93,SW,222,6.0,7.0,92,0.00,,,0.01,Wunderground v.1.15,2013-10-07 16:35:00,
2013-10-07 12:40:00,48.4,46.2,29.93,SSE,162,6.0,6.0,92,0.00,,,0.01,Wunderground v.1.15,2013-10-07 16:40:00,
2013-10-07 12:45:00,48.2,46.3,29.94,WSW,248,5.0,7.0,93,0.00,,,0.01,Wunderground v.1.15,2013-10-07 16:45:00,
2013-10-07 12:55:00,48.3,46.7,29.94,WNW,301,6.0,6.0,94,0.00,,,0.01,Wunderground v.1.15,2013-10-07 16:55:00,
2013-10-07 13:00:00,48.5,47.1,29.94,WNW,300,6.0,6.0,95,0.00,,,0.01,Wunderground v.1.15,2013-10-07 17:00:00,
2013-10-07 13:10:00,48.9,47.2,29.95,WSW,253,8.0,11.0,94,0.00,,,0.01,Wunderground v.1.15,2013-10-07 17:10:00,
2013-10-07 13:15:00,49.1,47.4,29.95,WSW,257,8.0,11.0,94,0.00,,,0.01,Wunderground v.1.15,2013-10-07 17:15:00,
2013-10-07 13:20:00,49.3,47.6,29.95,WSW,250,6.0,6.0,94,0.00,,,0.01,Wunderground v.1.15,2013-10-07 17:20:00,
2013-10-07 13:30:00,49.2,47.3,29.95,West,265,8.0,8.0,93,0.00,,,0.01,Wunderground v.1.15,2013-10-07 17:30:00,
2013-10-07 13:35:00,49.3,47.4,29.95,WSW,245,8.0,8.0,93,0.00,,,0.01,Wunderground v.1.15,2013-10-07 17:35:00,
2013-10-07 13:40:00,49.5,47.8,29.95,West,278,7.0,7.0,94,0.00,,,0.01,Wunderground v.1.15,2013-10-07 17:40:00,
2013-10-07 13:45:00,49.8,47.9,29.96,WSW,237,6.0,7.0,93,0.00,,,0.01,Wunderground v.1.15,2013-10-07 17:45:00,
2013-10-07 13:50:00,50.5,48.6,29.95,WNW,283,6.0,6.0,93,0.00,,,0.01,Wunderground v.1.15,2013-10-07 17:50:00,
2013-10-07 14:00:00,51.3,49.1,29.96,WSW,250,5.0,6.0,92,0.00,,,0.01,Wunderground v.1.15,2013-10-07 18:00:00,
2013-10-07 14:10:00,51.7,49.2,29.96,WNW,302,6.0,18.0,91,0.00,,,0.01,Wunderground v.1.15,2013-10-07 18:10:00,
2013-10-07 14:15:00,52.3,49.8,29.96,West,263,6.0,18.0,91,0.00,,,0.01,Wunderground v.1.15,2013-10-07 18:15:00,
2013-10-07 14:20:00,52.4,48.9,29.96,NW,308,7.0,7.0,88,0.00,,,0.01,Wunderground v.1.15,2013-10-07 18:20:00,
2013-10-07 14:25:00,52.4,49.3,29.96,SW,229,7.0,8.0,89,0.00,,,0.01,Wunderground v.1.15,2013-10-07 18:25:00,
2013-10-07 14:35:00,54.1,50.0,29.96,WSW,255,6.0,6.0,86,0.00,,,0.01,Wunderground v.1.15,2013-10-07 18:35:00,
2013-10-07 14:40:00,54.6,50.2,29.96,WNW,300,7.0,7.0,85,0.00,,,0.01,Wunderground v.1.15,2013-10-07 18:40:00,
2013-10-07 14:45:00,54.6,50.2,29.97,NNW,335,6.0,11.0,85,0.00,,,0.01,Wunderground v.1.15,2013-10-07 18:45:00,
2013-10-07 14:50:00,54.7,50.3,29.97,WNW,295,5.0,5.0,85,0.00,,,0.01,Wunderground v.1.15,2013-10-07 18:50:00,
2013-10-07 14:55:00,55.7,50.9,29.97,WSW,239,5.0,6.0,84,0.00,,,0.01,Wunderground v.1.15,2013-10-07 18:55:00,
2013-10-07 15:00:00,56.0,50.9,29.97,West,276,5.0,8.0,83,0.00,,,0.01,Wunderground v.1.15,2013-10-07 19:00:00,
2013-10-07 15:10:00,56.2,50.1,29.97,WNW,293,6.0,6.0,80,0.00,,,0.01,Wunderground v.1.15,2013-10-07 19:10:00,
2013-10-07 15:15:00,56.6,50.8,29.97,WNW,297,6.0,6.0,81,0.00,,,0.01,Wunderground v.1.15,2013-10-07 19:15:00,
2013-10-07 15:20:00,56.5,50.4,29.97,NW,308,6.0,8.0,80,0.00,,,0.01,Wunderground v.1.15,2013-10-07 19:20:00,
2013-10-07 15:25:00,56.1,50.3,29.98,NW,308,7.0,8.0,81,0.00,,,0.01,Wunderground v.1.15,2013-10-07 19:25:00,
2013-10-07 15:30:00,57.1,50.3,29.98,WNW,295,6.0,9.0,78,0.00,,,0.01,Wunderground v.1.15,2013-10-07 19:30:00,
2013-10-07 15:40:00,58.5,48.0,29.98,WNW,290,9.0,13.0,68,0.00,,,0.01,Wunderground v.1.15,2013-10-07 19:40:00,
2013-10-07 15:45:00,58.9,46.7,29.98,WNW,298,12.0,13.0,64,0.00,,,0.01,Wunderground v.1.15,2013-10-07 19:45:00,
2013-10-07 15:50:00,59.1,47.3,29.99,NW,316,11.0,11.0,65,0.00,,,0.01,Wunderground v.1.15,2013-10-07 19:50:00,
2013-10-07 15:55:00,59.2,46.2,29.99,NNW,335,10.0,11.0,62,0.00,,,0.01,Wunderground v.1.15,2013-10-07 19:55:00,
2013-10-07 16:00:00,58.2,45.7,29.99,West,276,9.0,9.0,63,0.00,,,0.01,Wunderground v.1.15,2013-10-07 20:00:00,
2013-10-07 16:05:00,57.9,46.2,29.99,WNW,297,7.0,9.0,65,0.00,,,0.01,Wunderground v.1.15,2013-10-07 20:05:00,
2013-10-07 16:10:00,57.9,45.8,29.99,NW,313,6.0,6.0,64,0.00,,,0.01,Wunderground v.1.15,2013-10-07 20:10:00,
2013-10-07 16:15:00,57.7,45.6,30.00,NW,305,6.0,6.0,64,0.00,,,0.01,Wunderground v.1.15,2013-10-07 20:15:00,
2013-10-07 16:20:00,57.8,45.7,30.00,NW,319,6.0,8.0,64,0.00,,,0.01,Wunderground v.1.15,2013-10-07 20:20:00,
2013-10-07 16:25:00,57.9,46.6,30.00,NNW,344,6.0,8.0,66,0.00,,,0.01,Wunderground v.1.15,2013-10-07 20:25:00,
2013-10-07 16:30:00,58.4,47.5,30.00,WNW,284,6.0,11.0,67,0.00,,,0.01,Wunderground v.1.15,2013-10-07 20:30:00,
2013-10-07 16:40:00,58.8,47.1,30.00,WNW,288,9.0,12.0,65,0.00,,,0.01,Wunderground v.1.15,2013-10-07 20:40:00,
2013-10-07 16:45:00,59.3,47.1,30.00,NW,313,9.0,12.0,64,0.00,,,0.01,Wunderground v.1.15,2013-10-07 20:45:00,
2013-10-07 16:50:00,59.4,47.2,30.01,WNW,297,9.0,9.0,64,0.00,,,0.01,Wunderground v.1.15,2013-10-07 20:50:00,
2013-10-07 16:55:00,59.4,47.2,30.01,NW,305,8.0,16.0,64,0.00,,,0.01,Wunderground v.1.15,2013-10-07 20:55:00,
2013-10-07 17:00:00,58.9,45.9,30.01,North,9,9.0,10.0,62,0.00,,,0.01,Wunderground v.1.15,2013-10-07 21:00:00,
2013-10-07 17:10:00,59.3,46.7,30.01,NW,310,9.0,9.0,63,0.00,,,0.01,Wunderground v.1.15,2013-10-07 21:10:00,
2013-10-07 17:15:00,59.6,46.6,30.01,NW,304,7.0,9.0,62,0.00,,,0.01,Wunderground v.1.15,2013-10-07 21:15:00,
2013-10-07 17:20:00,59.3,45.4,30.02,WNW,302,7.0,12.0,60,0.00,,,0.01,Wunderground v.1.15,2013-10-07 21:20:00,
2013-10-07 17:25:00,59.0,45.6,30.02,WNW,293,8.0,12.0,61,0.00,,,0.01,Wunderground v.1.15,2013-10-07 21:25:00,
2013-10-07 17:30:00,58.8,45.8,30.02,NNW,348,8.0,11.0,62,0.00,,,0.01,Wunderground v.1.15,2013-10-07 21:30:00,
2013-10-07 17:35:00,58.9,45.9,30.02,WNW,302,8.0,11.0,62,0.00,,,0.01,Wunderground v.1.15,2013-10-07 21:35:00,
2013-10-07 17:45:00,59.0,46.0,30.02,WNW,295,6.0,7.0,62,0.00,,,0.01,Wunderground v.1.15,2013-10-07 21:45:00,
2013-10-07 17:50:00,59.2,46.2,30.03,WNW,298,6.0,6.0,62,0.00,,,0.01,Wunderground v.1.15,2013-10-07 21:50:00,
2013-10-07 17:55:00,59.0,46.0,30.03,WNW,284,5.0,6.0,62,0.00,,,0.01,Wunderground v.1.15,2013-10-07 21:55:00,
2013-10-07 18:00:00,58.4,45.8,30.03,WNW,287,5.0,5.0,63,0.00,,,0.01,Wunderground v.1.15,2013-10-07 22:00:00,
2013-10-07 18:10:00,59.1,46.5,30.03,West,280,3.0,3.0,63,0.00,,,0.01,Wunderground v.1.15,2013-10-07 22:10:00,
2013-10-07 18:20:00,59.0,46.4,30.04,WNW,295,3.0,4.0,63,0.00,,,0.01,Wunderground v.1.15,2013-10-07 22:20:00,
2013-10-07 18:25:00,59.0,46.4,30.04,WNW,293,3.0,4.0,63,0.00,,,0.01,Wunderground v.1.15,2013-10-07 22:25:00,
2013-10-07 18:30:00,58.9,46.3,30.05,WNW,293,3.0,3.0,63,0.00,,,0.01,Wunderground v.1.15,2013-10-07 22:30:00,
2013-10-07 18:35:00,58.7,46.1,30.05,WNW,290,3.0,4.0,63,0.00,,,0.01,Wunderground v.1.15,2013-10-07 22:35:00,
2013-10-07 18:40:00,58.1,46.0,30.05,WNW,291,3.0,4.0,64,0.00,,,0.01,Wunderground v.1.15,2013-10-07 22:40:00,
2013-10-07 18:50:00,57.7,46.0,30.06,WNW,290,2.0,2.0,65,0.00,,,0.01,Wunderground v.1.15,2013-10-07 22:50:00,
2013-10-07 18:55:00,57.6,46.3,30.06,West,276,1.0,2.0,66,0.00,,,0.01,Wunderground v.1.15,2013-10-07 22:55:00,
2013-10-07 19:00:00,56.9,46.1,30.06,WNW,291,1.0,1.0,67,0.00,,,0.01,Wunderground v.1.15,2013-10-07 23:00:00,
2013-10-07 19:10:00,55.3,46.1,30.07,WNW,287,0.0,0.0,71,0.00,,,0.01,Wunderground v.1.15,2013-10-07 23:10:00,
2013-10-07 19:15:00,54.6,45.8,30.07,WNW,298,0.0,0.0,72,0.00,,,0.01,Wunderground v.1.15,2013-10-07 23:15:00,
2013-10-07 19:25:00,53.2,45.5,30.07,WNW,298,0.0,0.0,75,0.00,,,0.01,Wunderground v.1.15,2013-10-07 23:25:00,
2013-10-07 19:30:00,52.7,45.7,30.07,WNW,298,0.0,0.0,77,0.00,,,0.01,Wunderground v.1.15,2013-10-07 23:30:00,
2013-10-07 19:35:00,51.9,45.3,30.08,WNW,298,0.0,0.0,78,0.00,,,0.01,Wunderground v.1.15,2013-10-07 23:35:00,
2013-10-07 19:40:00,51.6,45.3,30.08,NW,326,0.0,0.0,79,0.00,,,0.01,Wunderground v.1.15,2013-10-07 23:40:00,
2013-10-07 19:45:00,51.5,45.2,30.08,NW,326,0.0,0.0,79,0.00,,,0.01,Wunderground v.1.15,2013-10-07 23:45:00,
2013-10-07 19:50:00,50.9,45.3,30.08,NW,326,0.0,0.0,81,0.00,,,0.01,Wunderground v.1.15,2013-10-07 23:50:00,
2013-10-07 19:55:00,50.4,45.1,30.08,NW,326,0.0,0.0,82,0.00,,,0.01,Wunderground v.1.15,2013-10-07 23:55:00,
2013-10-07 20:00:00,49.8,45.2,30.08,NW,326,0.0,0.0,84,0.00,,,0.01,Wunderground v.1.15,2013-10-08 00:00:00,
2013-10-07 20:10:00,48.9,44.9,30.08,NNW,340,0.0,0.0,86,0.00,,,0.01,Wunderground v.1.15,2013-10-08 00:10:00,
2013-10-07 20:15:00,48.6,44.9,30.09,NNW,340,0.0,0.0,87,0.00,,,0.01,Wunderground v.1.15,2013-10-08 00:15:00,
2013-10-07 20:25:00,48.7,44.7,30.09,NNW,340,0.0,0.0,86,0.00,,,0.01,Wunderground v.1.15,2013-10-08 00:25:00,
2013-10-07 20:30:00,48.7,44.7,30.10,NNW,340,0.0,0.0,86,0.00,,,0.01,Wunderground v.1.15,2013-10-08 00:30:00,
2013-10-07 20:35:00,48.9,44.9,30.10,NNW,345,0.0,0.0,86,0.00,,,0.01,Wunderground v.1.15,2013-10-08 00:35:00,
2013-10-07 20:40:00,48.8,44.5,30.10,NNW,347,0.0,0.0,85,0.00,,,0.01,Wunderground v.1.15,2013-10-08 00:40:00,
2013-10-07 20:45:00,47.9,44.2,30.10,NNW,347,0.0,0.0,87,0.00,,,0.01,Wunderground v.1.15,2013-10-08 00:45:00,
2013-10-07 20:50:00,47.4,44.0,30.10,NNW,347,0.0,0.0,88,0.00,,,0.01,Wunderground v.1.15,2013-10-08 00:50:00,
2013-10-07 21:00:00,46.3,43.5,30.11,SW,226,0.0,0.0,90,0.00,,,0.01,Wunderground v.1.15,2013-10-08 01:00:00,
2013-10-07 21:10:00,46.4,44.2,30.11,NNE,13,0.0,0.0,92,0.00,,,0.01,Wunderground v.1.15,2013-10-08 01:10:00,
2013-10-07 21:15:00,46.6,44.1,30.11,North,11,0.0,0.0,91,0.00,,,0.01,Wunderground v.1.15,2013-10-08 01:15:00,
2013-10-07 21:20:00,46.9,44.4,30.11,North,11,0.0,0.0,91,0.00,,,0.01,Wunderground v.1.15,2013-10-08 01:20:00,
2013-10-07 21:30:00,46.8,44.0,30.12,North,11,0.0,0.0,90,0.00,,,0.01,Wunderground v.1.15,2013-10-08 01:30:00,
2013-10-07 21:35:00,46.7,43.9,30.12,North,11,0.0,0.0,90,0.00,,,0.01,Wunderground v.1.15,2013-10-08 01:35:00,
2013-10-07 21:40:00,46.5,44.0,30.13,NNE,12,0.0,0.0,91,0.00,,,0.01,Wunderground v.1.15,2013-10-08 01:40:00,
2013-10-07 21:45:00,47.0,44.2,30.13,NNE,12,0.0,1.0,90,0.00,,,0.01,Wunderground v.1.15,2013-10-08 01:45:00,
2013-10-07 21:50:00,46.4,43.3,30.13,North,11,0.0,0.0,89,0.00,,,0.01,Wunderground v.1.15,2013-10-08 01:50:00,
2013-10-07 21:55:00,45.8,43.0,30.13,NNE,12,0.0,0.0,90,0.00,,,0.01,Wunderground v.1.15,2013-10-08 01:55:00,
2013-10-07 22:00:00,45.7,43.8,30.13,North,11,0.0,0.0,93,0.00,,,0.01,Wunderground v.1.15,2013-10-08 02:00:00,
2013-10-07 22:10:00,44.9,42.7,30.14,North,11,0.0,0.0,92,0.00,,,0.01,Wunderground v.1.15,2013-10-08 02:10:00,
2013-10-07 22:15:00,45.0,43.7,30.14,NNE,22,0.0,1.0,95,0.00,,,0.01,Wunderground v.1.15,2013-10-08 02:15:00,
2013-10-07 22:20:00,45.7,43.8,30.14,NNE,23,0.0,0.0,93,0.00,,,0.01,Wunderground v.1.15,2013-10-08 02:20:00,
2013-10-07 22:25:00,44.9,42.7,30.14,NNE,23,0.0,0.0,92,0.00,,,0.01,Wunderground v.1.15,2013-10-08 02:25:00,
2013-10-07 22:30:00,44.1,41.9,30.14,NNE,23,0.0,0.0,92,0.00,,,0.01,Wunderground v.1.15,2013-10-08 02:30:00,
2013-10-07 22:35:00,43.7,41.8,30.14,NNE,23,0.0,0.0,93,0.00,,,0.01,Wunderground v.1.15,2013-10-08 02:35:00,
2013-10-07 22:40:00,43.7,42.4,30.15,NNE,23,0.0,0.0,95,0.00,,,0.01,Wunderground v.1.15,2013-10-08 02:40:00,
2013-10-07 22:45:00,44.1,43.0,30.15,NNE,23,0.0,0.0,96,0.00,,,0.01,Wunderground v.1.15,2013-10-08 02:45:00,
2013-10-07 22:50:00,44.7,43.6,30.15,NNE,23,0.0,0.0,96,0.00,,,0.01,Wunderground v.1.15,2013-10-08 02:50:00,
2013-10-07 22:55:00,45.1,44.0,30.15,NNE,23,0.0,0.0,96,0.00,,,0.01,Wunderground v.1.15,2013-10-08 02:55:00,
2013-10-07 23:00:00,44.4,42.5,30.15,NNE,23,0.0,0.0,93,0.00,,,0.01,Wunderground v.1.15,2013-10-08 03:00:00,
2013-10-07 23:10:00,43.8,42.5,30.15,NNE,23,0.0,0.0,95,0.00,,,0.01,Wunderground v.1.15,2013-10-08 03:10:00,
2013-10-07 23:15:00,43.5,42.2,30.16,NNE,23,0.0,0.0,95,0.00,,,0.01,Wunderground v.1.15,2013-10-08 03:15:00,
2013-10-07 23:20:00,43.7,42.6,30.16,NNE,23,0.0,0.0,96,0.00,,,0.01,Wunderground v.1.15,2013-10-08 03:20:00,
2013-10-07 23:25:00,43.8,42.7,30.16,NNE,27,1.0,2.0,96,0.00,,,0.01,Wunderground v.1.15,2013-10-08 03:25:00,
2013-10-07 23:30:00,43.6,42.3,30.16,NNE,27,1.0,1.0,95,0.00,,,0.01,Wunderground v.1.15,2013-10-08 03:30:00,
2013-10-07 23:40:00,43.5,42.7,30.16,NNE,27,0.0,0.0,97,0.00,,,0.01,Wunderground v.1.15,2013-10-08 03:40:00,
2013-10-07 23:45:00,44.2,43.4,30.16,NNE,30,0.0,0.0,97,0.00,,,0.01,Wunderground v.1.15,2013-10-08 03:45:00,
2013-10-07 23:50:00,43.8,42.7,30.17,NNE,30,0.0,0.0,96,0.00,,,0.01,Wunderground v.1.15,2013-10-08 03:50:00,
2013-10-07 23:55:00,43.3,42.2,30.17,NNE,30,0.0,0.0,96,0.00,,,0.01,Wunderground v.1.15,2013-10-08 03:55:00,